Regional Weather Roundup
Issued by NWS

Home | Current Version | Previous Version | Graphics & Text | Print | Product List | Glossary On
Versions: 1 2 3 4 5 6 7 8 9 10 11 12 13 14 15 16 17 18 19 20 21 22 23 24 25 26 27 28 29 30 31 32 33 34 35 36 37 38 39 40 41 42 43 44 45 46 47 48 49 50
000
ASUS43 KLOT 292308
RWRIL

ILLINOIS REGIONAL WEATHER ROUNDUP
NATIONAL WEATHER SERVICE CHICAGO/ROMEOVILLE IL
600 PM CDT THU SEP 29 2016

NOTE: "FAIR" INDICATES FEW OR NO CLOUDS BELOW 12,000 FEET WITH NO
SIGNIFICANT WEATHER AND/OR OBSTRUCTIONS TO VISIBILITY.

* THESE STATIONS ARE NOT UNDER NWS QUALITY CONTROL. THEY ALSO MAY NOT
  REPORT WEATHER SUCH AS PRECIPITATION OR FOG.

ILZ001-002-007-009-015-016-024-300000-
NORTHWEST ILLINOIS

CITY           SKY/WX    TMP DP  RH WIND       PRES   REMARKS
MOLINE         CLOUDY    72  52  49 NE14G21   30.22R
STERLING*      MOCLDY    65  56  72 NE10      30.25R
SAVANNA*       CLOUDY    68  55  62 E10G16    30.25R
$$

ILZ003-004-008-010-011-017-018-300000-
NORTH CENTRAL ILLINOIS

CITY           SKY/WX    TMP DP  RH WIND       PRES   REMARKS
ROCKFORD       MOCLDY    66  53  63 NE13      30.27R
FREEPORT*      CLOUDY    64  54  69 NE10      30.28R
ROCHELLE*      CLOUDY    66  55  67 NE18G26   30.24S
DE KALB*       CLOUDY    60  58  91 NE10      30.25R
$$

ILZ005-006-012>014-019>023-300000-
NORTHEAST ILLINOIS

CITY           SKY/WX    TMP DP  RH WIND       PRES   REMARKS
CHICAGO-OHARE  CLOUDY    63  57  81 NE15      30.21R
CHICAGO-MIDWAY MOCLDY    65  57  75 NE16      30.19R
AURORA         MOCLDY    63  58  83 N15       30.22R
LANSING*       CLOUDY    64  60  88 NE16G23   30.18R
JOLIET*        MOCLDY    67  59  76 NE10G17   30.19S
WAUKEGAN       CLOUDY    63  58  83 NE8       30.24R
DUPAGE AIRPORT CLOUDY    63  57  81 NE13      30.21R
KANKAKEE*      LGT RAIN  62  59  88 N9G17     30.17R
WHEELING       CLOUDY    63  57  81 NE12G22   30.24R
MORRIS*        CLOUDY    65  59  81 N3        30.18S
ROMEOVILLE*    CLOUDY    64  60  87 NE17      30.19S
NORTHERLY ISL    N/A     62  57  83 NE16        N/A
$$

LMZ740>746-300000-
SOUTHERN LAKE MICHIGAN

STATION/POSITION SKY/WX   TEMP    WIND        PRES    VSBY  WAVE
                          AIR SEA DIR/SP/G                  HT/PER
                          (F)     (DEG/KT/KT) (MB)    (MI)  (FT/S)
SOUTHERN BUOY              65 69   70/ 19/ 23 1023.0R         6/ 6
WILMETTE HARBOR            62 57   80/ 16/ 21   N/A           7/ 7
HARRISON CRIB              65      40/ 25/ 29   N/A
BURNHAM HARBOR             62      30/ 17/ 21   N/A
CALUMET HARBOR             64      30/ 16/ 21 1021.8R
BURNS HARBOR               64      50/ 26/ 31 1021.3R
MICHIGAN CITY              62      20/ 24/ 28   N/A
MICHIGAN CITY 6N           63 65   40/ 19/ 25   N/A           7/ 7
ST. JOSEPH                 62 63   40/ 16/ 19 1022.4          5/ 7
$$

ILZ025>027-034>036-040-047-049-050-058-095>099-300000-
WEST-CENTRAL ILLINOIS

CITY           SKY/WX    TMP DP  RH WIND       PRES   REMARKS
QUINCY         MOCLDY    73  50  44 N9        30.19R
GALESBURG*     CLOUDY    68  55  62 NE14      30.21R
MACOMB*        CLOUDY    69  54  57 N10G18    30.22R
JACKSONVILLE*  CLOUDY    67  55  66 N7        30.17S
PITTSFIELD*    CLOUDY    69  54  59 N5        30.19R
$$

ILZ028>032-037-038-041>044-048-051>054-059>061-300000-
CENTRAL ILLINOIS

CITY           SKY/WX    TMP DP  RH WIND       PRES   REMARKS
PONTIAC        CLOUDY    64  63  94 N13       30.18R
BLOOMINGTON    CLOUDY    62  59  90 N17       30.17R
DECATUR        CLEAR     63  59  87 N14       30.14R
PEORIA         LGT RAIN  62  60  93 NE14G22   30.20R FOG
LACON*         CLOUDY    63  56  80 NE5       30.20S
LINCOLN*       MOCLDY    63  61  94 N7G17     30.17R
SPRINGFIELD    LGT RAIN  63  61  93 N10       30.17R FOG
TAYLORVILLE    LGT RAIN  60  59  94 N13G18    30.15R
$$

ILZ033-039-045-046-055>057-062-063-300000-
EAST-CENTRAL ILLINOIS

CITY           SKY/WX    TMP DP  RH WIND       PRES   REMARKS
CHAMPAIGN      MOCLDY    68  53  58 N6        30.12R
RANTOUL*       LGT RAIN  68  59  71 N10       30.12R
MATTOON        MOCLDY    67  51  56 E6        30.11R
PARIS*         MOCLDY    67  52  57 CALM      30.11S
$$

ILZ079-100>102-300000-
SOUTHWEST ILLINOIS

CITY           SKY/WX    TMP DP  RH WIND       PRES   REMARKS
ALTON          DRIZZLE   63  55  77 N8        30.17R
BELLEVILLE     CLOUDY    63  58  84 NW5       30.14S
CAHOKIA*       CLOUDY    66  55  67 N13       30.17R
SPARTA*        CLOUDY    59  58  97 CALM      30.16S
$$

ILZ064>066-069>071-074>076-080>082-084>086-088>090-092>094-300000-
SOUTH-CENTRAL ILLINOIS

CITY           SKY/WX    TMP DP  RH WIND       PRES   REMARKS
CARBONDALE     CLOUDY    60  58  92 NW7       30.15R
CAIRO*         CLOUDY    63  56  77 NW10      30.14R
EFFINGHAM*     MOCLDY    67  56  66 N3        30.13R
MARION         CLOUDY    63  59  88 NW12      30.14R
MT. VERNON     CLEAR     64  54  68 CALM      30.13S
CENTRALIA*     MOCLDY    64  59  85 NW8       30.12S
SALEM*         PTCLDY    64  58  80 NW5       30.13S
METROPOLIS*    MOCLDY    65  56  71 NW12      30.12S
$$

ILZ067-068-072-073-078-083-087-091-300000-
SOUTHEAST ILLINOIS

CITY           SKY/WX    TMP DP  RH WIND       PRES   REMARKS
LAWRENCEVILLE  PTCLDY    64  53  67 N5        30.10R
FLORA*         CLOUDY    67  57  69 N6        30.11S
FAIRFIELD*     CLOUDY    66  55  68 NW3       30.09S
HARRISBURG*    MOCLDY    64  57  79 NW7       30.12R
ROBINSON*      MOCLDY    64  53  68 N6        30.11S
CARMI*         MOCLDY    65  55  69 W5        30.10R
$$

ABBREVIATIONS USED IN REMARKS
   TC - TEMPERATURE IN CELSIUS
  WCI - WIND CHILL INDEX
   HX - HEAT INDEX
  VSB - VISIBILITY
$$





USA.gov is the U.S. government's official web portal to all federal, state and local government web resources and services.